Cloud_Cover
0 0 0 0 0 2 4 0 0 2 5 89 100 77 100 100 100 100 100 100 98 79 99 100 47 100 100 100 96 100 100 100 100 100 100 100 100 76 55 79 68 15 99
0 0 0 0 0 0 0 0 0 0 87 100 100 100 100 100 99 100 96 99 100 100 100 100 51 94 78 100 100 100 98 100 94 100 100 100 100 100 100 84 100 15 83
0 0 0 0 0 0 0 0 0 1 69 100 100 100 100 100 100 100 69 100 90 100 99 100 93 100 21 44 100 100 100 96 100 94 100 100 100 100 100 100 86 100 5
0 0 0 0 0 0 0 0 1 0 39 1 84 100 84 85 80 56 98 59 100 100 100 100 100 100 98 100 100 70 100 96 100 98 63 100 100 100 100 100 100 100 50
0 0 0 0 0 0 0 0 0 27 11 24 55 49 100 100 100 94 100 100 100 100 100 100 100 100 100 100 97 90 100 100 100 100 94 87 100 100 100 100 100 100 100
0 0 0 0 0 0 0 3 1 0 3 80 100 99 100 99 100 99 49 64 100 100 100 100 100 82 100 100 100 100 77 98 100 79 52 100 99 93 100 100 100 100 100
0 0 0 0 0 0 0 1 0 32 81 93 88 66 100 99 4 11 29 99 84 100 100 96 100 100 100 100 100 100 100 96 100 100 5 96 14 5 94 100 100 100 100
0 0 0 0 0 0 0 2 0 10 29 78 87 29 36 1 2 0 10 14 82 100 100 98 89 100 100 94 97 100 100 100 75 24 84 80 22 5 26 96 100 100 100
0 0 0 0 0 0 0 0 1 8 22 0 1 0 0 0 0 2 0 0 2 18 29 97 100 100 100 77 100 99 100 100 86 64 62 15 41 48 64 94 98 100 100
0 0 0 0 0 0 0 0 0 0 0 0 0 0 0 0 0 0 2 3 1 2 4 41 20 25 100 100 99 9 80 98 36 0 0 0 0 72 100 60 97 100 100
0 0 0 0 0 0 0 0 0 0 0 0 0 0 0 0 0 0 2 4 5 3 1 4 7 7 48 5 0 0 4 0 0 0 0 0 0 11 99 100 100 100 100
0 0 0 0 0 0 0 0 0 0 0 0 0 0 0 0 0 0 0 1 3 2 4 4 3 4 5 5 5 3 0 1 0 0 0 0 0 46 100 100 100 100 100
0 0 0 0 0 0 0 0 0 0 0 0 0 0 0 0 0 0 0 0 0 0 1 4 4 5 5 5 5 5 5 5 4 5 0 0 0 2 87 100 100 100 100
0 0 0 0 0 0 0 0 0 0 0 0 0 0 0 0 0 0 0 0 1 5 2 5 20 24 20 5 5 5 5 8 5 5 3 0 0 1 28 100 90 100 99
0 0 0 0 0 0 0 0 0 0 0 0 0 0 0 0 0 0 0 0 0 5 5 5 22 38 40 61 23 5 5 25 5 5 5 2 0 19 27 87 99 100 100
0 0 0 0 0 0 0 0 0 0 0 0 0 0 0 0 0 0 0 2 5 5 5 5 5 20 68 74 24 5 5 6 5 5 5 5 5 0 70 77 100 100 100
0 0 0 0 0 0 0 0 0 0 0 0 0 0 0 0 0 0 5 5 5 5 59 30 5 31 99 74 10 8 39 18 10 5 11 14 5 2 0 2 17 22 29
0 0 0 0 0 0 0 0 0 0 0 0 0 0 0 0 0 5 6 99 75 99 86 65 79 100 76 65 7 5 48 85 66 23 10 31 16 5 1 0 0 0 0
0 0 0 0 0 0 0 0 0 0 0 0 0 0 0 0 0 5 100 100 100 100 67 79 96 98 99 39 15 37 48 77 85 56 24 24 32 3 0 0 0 0 0
0 0 0 0 0 0 0 0 0 0 0 0 0 0 0 0 5 34 86 91 100 100 98 72 84 100 79 55 86 97 79 14 6 68 6 27 56 2 0 0 1 0 0
0 0 0 0 0 0 0 0 0 0 0 0 0 0 0 1 5 5 17 46 98 100 100 100 100 100 100 95 100 100 93 32 8 82 99 54 80 4 0 0 5 0 0
0 0 0 0 0 0 0 0 0 0 0 0 0 0 0 0 5 5 5 81 74 100 100 90 100 100 100 94 100 100 92 29 97 77 100 100 100 14 4 7 5 0 0
0 0 0 0 0 0 0 0 0 0 0 0 0 0 0 0 0 5 5 9 13 41 98 94 91 100 100 100 100 100 100 97 100 66 100 100 100 98 95 100 7 3 2
0 0 0 0 0 0 0 0 0 0 0 0 0 0 0 0 0 0 5 5 5 5 28 98 100 100 91 99 70 100 100 100 100 92 85 100 100 100 100 99 88 5 3
0 0 0 0 0 0 0 0 0 0 0 0 0 0 0 0 0 5 5 5 5 5 5 29 98 100 100 100 99 99 100 74 100 100 100 100 100 100 98 81 82 67 37
0 0 0 0 0 0 0 0 0 0 0 0 0 0 0 0 0 5 1 1 5 4 5 5 5 90 100 92 87 100 100 100 100 100 100 100 100 100 100 81 61 98 28